[[{"header":{"parameterUnit":"m.s-1","parameterCategory":1,"la1":30.2991,"la2":30.254,"lo1":-89.0895,"lo2":-89.0444,"dy":0.0017,"dx":0.0017,"nx":28,"ny":28,"refTime":"2025-08-06T21:00:00:Z","depth":0,"parameterNumber":2,"parameterNumberName":"U-component_of_WINDS"},"data":[0,0,0,0,0,0,0,0,0,0,0,0,0,0,0,0,0,0,0,0,0,0,0,0,0,0,0,0,0,0,0,0,0,0,0,0,0,0,0,0,0,0,0,0,0,0,0,0,0,0,0,0,0,0,0,0,0,0,-2.3902,-2.3901,0,-2.3806,-2.3804,-2.3803,-2.3727,-2.3726,-2.3725,-2.3724,-2.3629,-2.3628,-2.3626,0,0,0,0,0,0,0,0,0,0,0,0,0,-2.4022,-2.402,-2.3902,-2.39,-2.3899,-2.3806,-2.3804,-2.3803,-2.3727,-2.3726,-2.3725,-2.3724,-2.363,-2.3628,-2.3626,0,0,0,0,0,0,0,0,0,0,0,0,0,-2.3952,-2.402,-2.3902,-2.385,-2.3844,-2.3806,-2.3804,-2.3803,-2.3727,-2.3726,-2.3724,-2.3723,-2.3631,-2.3628,-2.3625,-2.3632,0,0,-2.3617,-2.3616,0,0,0,0,0,0,0,0,-2.3956,-2.3948,-2.3859,-2.3853,-2.3847,-2.3777,-2.3812,-2.3746,-2.3727,-2.3771,-2.3724,-2.3723,-2.368,-2.3673,-2.3658,-2.3628,-2.3624,-2.3617,-2.3615,-2.3614,-2.3613,0,0,0,0,0,0,0,-2.3961,-2.3952,-2.3864,-2.3857,-2.385,-2.3832,-2.3821,-2.3799,-2.3733,-2.3768,-2.3762,-2.3751,-2.3676,-2.366,-2.3655,-2.3623,-2.3617,-2.3615,-2.3613,-2.3612,-2.3594,-2.3595,0,0,0,0,0,0,-2.3974,-2.3956,-2.3867,-2.3861,-2.39,-2.3831,-2.3818,-2.38,-2.3733,-2.3722,-2.3752,-2.3748,-2.3665,-2.3658,-2.3651,-2.3655,-2.3614,-2.3612,-2.361,-2.3593,-2.3595,-2.3596,0,0,0,0,0,0,-2.3977,-2.3967,-2.3871,-2.3907,-2.3893,-2.383,-2.3811,-2.3799,-2.3783,-2.3722,-2.371,-2.3748,-2.3664,-2.3655,-2.3637,-2.3651,-2.3611,-2.3608,-2.3592,-2.3594,-2.3595,-2.3663,0,0,0,0,0,0,-2.398,-2.3968,-2.3969,-2.3907,-2.3892,-2.3858,-2.3811,-2.3798,-2.3778,-2.3772,-2.3715,-2.3704,-2.3663,-2.3642,-2.3635,-2.3646,-2.3606,-2.359,-2.3593,-2.3595,-2.3659,-2.3667,-2.3673,0,0,0,0,0,-2.3985,-2.3993,-2.397,-2.3959,-2.3892,-2.3859,-2.385,-2.3801,-2.378,-2.3781,-2.3742,-2.3706,-2.365,-2.3641,-2.3632,-2.3643,-2.3589,-2.3592,-2.3595,-2.3656,-2.3665,-2.3673,0,0,0,0,0,0,-2.4059,-2.3984,-2.3957,-2.3945,-2.3909,-2.3846,-2.3845,-2.3812,-2.3782,-2.3777,-2.3719,-2.3706,-2.3696,-2.3667,-2.3658,-2.3646,-2.3615,-2.3616,-2.3665,-2.3673,-2.368,-2.3687,-2.3604,0,0,0,0,0,-2.4073,-2.4052,-2.3988,-2.3983,-2.3966,-2.3909,-2.3893,-2.3858,-2.3819,-2.3804,-2.3763,-2.3727,-2.3701,-2.3686,-2.3659,-2.3655,-2.3642,-2.3658,-2.3665,-2.3671,-2.3672,-2.3669,-2.3675,-2.3604,-2.3604,-2.3604,0,0,-2.4104,-2.406,-2.405,-2.3997,-2.3965,-2.3945,-2.3897,-2.3878,-2.3862,-2.3801,-2.3781,-2.3751,-2.3707,-2.3696,-2.369,-2.3672,-2.3689,-2.3674,-2.3679,-2.3678,-2.3672,-2.3679,-2.3685,-2.3606,-2.3606,-2.3605,0,0,-2.4149,-2.4113,-2.4106,-2.4074,-2.4026,-2.3988,-2.3986,-2.3928,-2.3905,-2.3884,-2.3838,-2.382,-2.3776,-2.3747,-2.3727,-2.3761,-2.3727,-2.3754,-2.379,-2.3787,-2.3793,-2.3798,-2.381,-2.3815,-2.3756,-2.3756,-2.3756,0,-2.4193,-2.416,-2.4106,-2.4089,-2.4068,-2.401,-2.4003,-2.3975,-2.3921,-2.3908,-2.3889,-2.3834,-2.38,-2.3782,-2.379,-2.3776,-2.3773,-2.376,-2.3796,-2.38,-2.3804,-2.3815,-2.382,-2.3759,-2.3759,-2.3759,-2.3758,0,-2.4217,-2.4194,-2.4194,-2.4142,-2.412,-2.4108,-2.4054,-2.4039,-2.4007,-2.3971,-2.3951,-2.3909,-2.3872,-2.3866,-2.3834,-2.3843,-2.3834,-2.3807,-2.3775,-2.3815,-2.3825,-2.3829,-2.3765,-2.3763,-2.3762,-2.3761,0,0,-2.4305,-2.4223,-2.4224,-2.42,-2.4142,-2.4125,-2.4111,-2.4074,-2.4062,-2.4027,-2.4014,-2.3979,-2.3953,-2.393,-2.3895,-2.3892,-2.3923,-2.3865,-2.3863,-2.3878,-2.3931,-2.3952,-2.3958,-2.39,-2.3901,-2.3901,-2.3935,0,-2.4341,-2.4311,-2.4263,-2.4249,-2.4228,-2.4173,-2.4161,-2.4125,-2.4092,-2.4071,-2.4034,-2.401,-2.3978,-2.3963,-2.3958,-2.392,-2.3933,-2.3917,-2.3889,-2.3888,-2.3901,-2.3963,-2.3985,-2.4018,-2.3938,-2.3939,-2.3939,0,-2.4379,-2.4345,-2.433,-2.4273,-2.4263,-2.4253,-2.4215,-2.4195,-2.4153,-2.4129,-2.4104,-2.4065,-2.4049,-2.4019,-2.3996,-2.3987,-2.3973,-2.3952,-2.3952,-2.3948,-2.3916,-2.396,-2.4027,-2.4033,-2.3944,-2.3944,-2.3944,0,-2.4445,-2.4397,-2.438,-2.4361,-2.4296,-2.429,-2.4263,-2.422,-2.4201,-2.4169,-2.4156,-2.4123,-2.4105,-2.4081,-2.4035,-2.4018,-2.4017,-2.3984,-2.3998,-2.3999,-2.4,-2.4,-2.4066,-2.3991,-2.3991,-2.3991,-2.3991,0,-2.449,-2.4483,-2.4409,-2.44,-2.439,-2.4335,-2.4327,-2.4295,-2.4258,-2.4241,-2.4193,-2.4179,-2.4119,-2.4099,-2.4063,-2.405,-2.4042,-2.4023,-2.4013,-2.4027,-2.403,-2.4017,-2.4013,-2.3992,-2.3992,-2.3991,-2.3991,0,-2.4563,-2.4513,-2.4492,-2.4431,-2.4416,-2.4412,-2.436,-2.4349,-2.4313,-2.4293,-2.4286,-2.4229,-2.4203,-2.4155,-2.4115,-2.4091,-2.4085,-2.4069,-2.4099,-2.4093,-2.411,-2.4109,-2.4169,-2.4175,-2.4097,-2.4097,-2.4098,0,-2.4594,-2.4587,-2.4526,-2.4511,-2.4485,-2.4462,-2.4442,-2.4388,-2.437,-2.4322,-2.4317,-2.4287,-2.4259,-2.422,-2.4176,-2.4146,-2.4128,-2.4152,-2.4123,-2.4138,-2.4129,-2.413,-2.4129,-2.4158,-2.4159,-2.416,-2.4161,0,-2.4657,-2.4632,-2.4605,-2.4569,-2.4547,-2.4517,-2.4484,-2.4475,-2.4414,-2.4396,-2.4367,-2.4346,-2.4305,-2.4276,-2.4239,-2.4212,-2.4177,-2.417,-2.4172,-2.4186,-2.4203,-2.4194,-2.4116,-2.4169,-2.4168,-2.4168,-2.4167,-2.4167,-2.4709,-2.47,-2.4656,-2.4627,-2.4597,-2.4567,-2.4554,-2.4516,-2.4491,-2.4452,-2.4422,-2.4397,-2.4356,-2.4303,-2.4278,-2.4258,-2.4241,-2.4244,-2.4244,-2.4246,-2.4251,-2.4207,-2.4251,-2.4251,-2.4251,-2.425,-2.425,0,-2.4769,-2.4737,-2.4712,-2.4667,-2.4645,-2.4612,-2.4574,-2.4558,-2.4536,-2.45,-2.4474,-2.4442,-2.4414,-2.4368,-2.4336,-2.4329,-2.4312,-2.4322,-2.4322,-2.4317,-2.4268,-2.427,-2.4336,-2.4336,-2.4336,-2.4336,-2.4336,-2.4336,-2.4797,-2.478,-2.4751,-2.4719,-2.4688,-2.4661,-2.4642,-2.4616,-2.4587,-2.4553,-2.4528,-2.4498,-2.4459,-2.4424,-2.4396,-2.4384,-2.4374,-2.439,-2.4373,-2.4328,-2.432,-2.4312,-2.4314,-2.4388,-2.4388,-2.4423,-2.4423,-2.4423]},{"header":{"parameterUnit":"m.s-1","parameterCategory":1,"la1":30.2991,"la2":30.254,"lo1":-89.0895,"lo2":-89.0444,"dy":0.0017,"dx":0.0017,"nx":28,"ny":28,"refTime":"2025-08-06T21:00:00:Z","depth":0,"parameterNumber":3,"parameterNumberName":"V-component_of_WINDS"},"data":[0,0,0,0,0,0,0,0,0,0,0,0,0,0,0,0,0,0,0,0,0,0,0,0,0,0,0,0,0,0,0,0,0,0,0,0,0,0,0,0,0,0,0,0,0,0,0,0,0,0,0,0,0,0,0,0,0,0,-0.4915,-0.4916,0,-0.502,-0.5021,-0.5022,-0.5039,-0.5038,-0.5037,-0.5036,-0.5149,-0.5153,-0.5156,0,0,0,0,0,0,0,0,0,0,0,0,0,-0.4731,-0.4734,-0.4915,-0.4916,-0.4917,-0.502,-0.5021,-0.5023,-0.5039,-0.5038,-0.5037,-0.5036,-0.5147,-0.5152,-0.5157,0,0,0,0,0,0,0,0,0,0,0,0,0,-0.4821,-0.4735,-0.4914,-0.4938,-0.4941,-0.5019,-0.5021,-0.5023,-0.5039,-0.5038,-0.5037,-0.5035,-0.5146,-0.5152,-0.5157,-0.5221,0,0,-0.5175,-0.5178,0,0,0,0,0,0,0,0,-0.4816,-0.4828,-0.4933,-0.4936,-0.494,-0.5015,-0.4998,-0.509,-0.504,-0.5002,-0.5036,-0.5035,-0.5106,-0.5115,-0.5138,-0.5227,-0.5232,-0.5176,-0.5179,-0.5182,-0.5183,0,0,0,0,0,0,0,-0.481,-0.4823,-0.4956,-0.4934,-0.4939,-0.4944,-0.4955,-0.5015,-0.5061,-0.5005,-0.5007,-0.5019,-0.5107,-0.5132,-0.514,-0.5233,-0.5175,-0.5181,-0.5184,-0.5186,-0.538,-0.5382,0,0,0,0,0,0,-0.4799,-0.4818,-0.4953,-0.496,-0.4873,-0.4948,-0.4961,-0.4992,-0.506,-0.5069,-0.502,-0.5019,-0.5123,-0.5134,-0.5144,-0.5224,-0.5182,-0.5187,-0.519,-0.5378,-0.538,-0.5382,0,0,0,0,0,0,-0.4795,-0.4811,-0.4949,-0.4889,-0.4907,-0.4953,-0.4988,-0.4995,-0.502,-0.5071,-0.508,-0.5037,-0.5122,-0.5136,-0.5202,-0.5228,-0.519,-0.5195,-0.5376,-0.5379,-0.5381,-0.5384,0,0,0,0,0,0,-0.4789,-0.4809,-0.4833,-0.489,-0.491,-0.5004,-0.499,-0.4998,-0.5029,-0.5029,-0.5089,-0.5098,-0.5122,-0.5193,-0.5208,-0.5236,-0.5199,-0.5374,-0.5378,-0.538,-0.5382,-0.5387,-0.539,0,0,0,0,0,-0.4783,-0.4831,-0.4834,-0.4851,-0.4941,-0.5005,-0.5017,-0.5043,-0.5031,-0.5057,-0.5089,-0.5096,-0.5223,-0.52,-0.5216,-0.5246,-0.5373,-0.5377,-0.538,-0.538,-0.5386,-0.539,0,0,0,0,0,0,-0.4779,-0.4839,-0.4843,-0.4911,-0.4952,-0.5008,-0.504,-0.5048,-0.5095,-0.5093,-0.5125,-0.5138,-0.5202,-0.5231,-0.5204,-0.5312,-0.5297,-0.5304,-0.5291,-0.5297,-0.5301,-0.5294,-0.5204,0,0,0,0,0,-0.4785,-0.4831,-0.4881,-0.4936,-0.4956,-0.4995,-0.5023,-0.5039,-0.5084,-0.5103,-0.514,-0.5185,-0.5234,-0.5267,-0.5316,-0.5385,-0.5399,-0.5414,-0.5418,-0.5422,-0.5428,-0.5467,-0.5475,-0.5394,-0.5394,-0.5394,0,0,-0.48,-0.4839,-0.4866,-0.4936,-0.497,-0.5018,-0.501,-0.506,-0.5096,-0.5111,-0.5175,-0.5204,-0.5255,-0.5323,-0.5355,-0.5349,-0.5453,-0.5426,-0.5428,-0.5434,-0.5472,-0.548,-0.5486,-0.5397,-0.5396,-0.5396,0,0,-0.4852,-0.4885,-0.4934,-0.4968,-0.5019,-0.5044,-0.5055,-0.5109,-0.5128,-0.5192,-0.5204,-0.5247,-0.5333,-0.5369,-0.5399,-0.5462,-0.547,-0.5477,-0.5499,-0.5537,-0.5544,-0.5549,-0.5573,-0.5581,-0.5482,-0.5482,-0.5482,0,-0.4865,-0.4935,-0.4959,-0.5009,-0.504,-0.5053,-0.5104,-0.5136,-0.52,-0.5222,-0.5213,-0.532,-0.5356,-0.5432,-0.5447,-0.5471,-0.5486,-0.5471,-0.554,-0.5546,-0.5552,-0.5575,-0.5584,-0.5483,-0.5483,-0.5483,-0.5483,0,-0.4949,-0.4998,-0.5031,-0.5092,-0.5126,-0.5176,-0.5208,-0.5241,-0.5253,-0.5279,-0.5344,-0.5387,-0.5444,-0.5463,-0.5477,-0.5542,-0.5536,-0.5534,-0.552,-0.556,-0.5582,-0.5591,-0.5484,-0.5484,-0.5484,-0.5483,0,0,-0.5004,-0.5074,-0.5087,-0.5114,-0.517,-0.5209,-0.5259,-0.5314,-0.5341,-0.5385,-0.5429,-0.5499,-0.5497,-0.553,-0.5548,-0.5581,-0.5629,-0.5574,-0.5576,-0.5584,-0.5704,-0.5707,-0.5716,-0.5633,-0.5635,-0.5636,-0.57,0,-0.5063,-0.5152,-0.5174,-0.5251,-0.5297,-0.5308,-0.5353,-0.5392,-0.5417,-0.546,-0.5488,-0.5538,-0.553,-0.5551,-0.5584,-0.5616,-0.5653,-0.5611,-0.5676,-0.5678,-0.5664,-0.5728,-0.5731,-0.5789,-0.5708,-0.571,-0.5711,0,-0.5145,-0.5188,-0.5269,-0.5318,-0.5338,-0.5377,-0.5429,-0.5469,-0.5514,-0.553,-0.5566,-0.558,-0.5634,-0.5615,-0.569,-0.5661,-0.5689,-0.5708,-0.5711,-0.572,-0.5698,-0.574,-0.5808,-0.5818,-0.5725,-0.5723,-0.5722,0,-0.5178,-0.5256,-0.5315,-0.5338,-0.5396,-0.5424,-0.5449,-0.5493,-0.5524,-0.5569,-0.559,-0.5641,-0.5669,-0.5709,-0.5736,-0.572,-0.581,-0.5793,-0.5826,-0.5825,-0.5846,-0.5845,-0.5922,-0.5861,-0.5861,-0.586,-0.586,0,-0.5243,-0.5292,-0.533,-0.5367,-0.5422,-0.5447,-0.5501,-0.5528,-0.5566,-0.5608,-0.5622,-0.5661,-0.5694,-0.5738,-0.576,-0.582,-0.5832,-0.5848,-0.5853,-0.5848,-0.5846,-0.5868,-0.5865,-0.5863,-0.5862,-0.5862,-0.5861,0,-0.529,-0.5318,-0.5382,-0.5431,-0.5445,-0.5484,-0.5527,-0.5563,-0.5587,-0.564,-0.5654,-0.5693,-0.5745,-0.5776,-0.5843,-0.5857,-0.5924,-0.5927,-0.5908,-0.5911,-0.5943,-0.594,-0.6038,-0.6053,-0.598,-0.5981,-0.5981,0,-0.5331,-0.5369,-0.5421,-0.5449,-0.5475,-0.5521,-0.5552,-0.5577,-0.5609,-0.5663,-0.5693,-0.5745,-0.5789,-0.5873,-0.5908,-0.5959,-0.5965,-0.5995,-0.5973,-0.5966,-0.5967,-0.5965,-0.5969,-0.6,-0.6001,-0.6001,-0.6002,0,-0.54,-0.5411,-0.5455,-0.5503,-0.5539,-0.5579,-0.5618,-0.5641,-0.5673,-0.5708,-0.5761,-0.5795,-0.5862,-0.5915,-0.5969,-0.5997,-0.6005,-0.6008,-0.6019,-0.6014,-0.6003,-0.6011,-0.5921,-0.6006,-0.6006,-0.6006,-0.6005,-0.6005,-0.5447,-0.5481,-0.5523,-0.5571,-0.5602,-0.5638,-0.5674,-0.5702,-0.5746,-0.5802,-0.5814,-0.587,-0.5914,-0.5986,-0.6015,-0.606,-0.6055,-0.607,-0.6074,-0.6078,-0.608,-0.5993,-0.607,-0.607,-0.607,-0.607,-0.607,0,-0.5518,-0.5545,-0.5588,-0.5642,-0.568,-0.5681,-0.5725,-0.5757,-0.5805,-0.5844,-0.5886,-0.5947,-0.5998,-0.6036,-0.6088,-0.6117,-0.6122,-0.613,-0.613,-0.6136,-0.6081,-0.6067,-0.6125,-0.6125,-0.6125,-0.6125,-0.6125,-0.6125,-0.556,-0.5618,-0.5633,-0.5707,-0.5734,-0.5788,-0.5812,-0.5846,-0.5877,-0.5944,-0.5986,-0.6009,-0.6048,-0.6103,-0.615,-0.616,-0.6179,-0.6187,-0.6198,-0.6146,-0.614,-0.6134,-0.6122,-0.619,-0.619,-0.6249,-0.625,-0.625]}]]